Regional Weather Roundup
Issued by NWS

Home | Current Version | Previous Version | Graphics & Text | Print | Product List | Glossary On
Versions: 1 2 3 4 5 6 7 8 9 10 11 12 13 14 15 16 17 18 19 20 21 22 23 24 25 26 27 28 29 30 31 32 33 34 35 36 37 38 39 40 41 42 43 44 45 46 47 48 49 50
000
ASUS43 KLOT 211000
RWRIL

ILLINOIS REGIONAL WEATHER ROUNDUP
NATIONAL WEATHER SERVICE CHICAGO/ROMEOVILLE IL
500 AM CDT THU AUG 21 2014

NOTE: "FAIR" INDICATES FEW OR NO CLOUDS BELOW 12,000 FEET WITH NO
SIGNIFICANT WEATHER AND/OR OBSTRUCTIONS TO VISIBILITY.

* THESE STATIONS ARE NOT UNDER NWS QUALITY CONTROL. THEY ALSO MAY NOT
  REPORT WEATHER SUCH AS PRECIPITATION OR FOG.

ILZ001-002-007-009-015-016-024-211100-
NORTHWEST ILLINOIS

CITY           SKY/WX    TMP DP  RH WIND       PRES   REMARKS
MOLINE         PTCLDY    72  69  90 S5        29.87F
STERLING*      CLOUDY    70  66  88 S6        29.91S THUNDER
$$

ILZ003-004-008-010-011-017-018-211100-
NORTH CENTRAL ILLINOIS

CITY           SKY/WX    TMP DP  RH WIND       PRES   REMARKS
ROCKFORD       TSTM      70  67  90 VRB6      29.96R FOG
ROCHELLE*      CLOUDY    70  67  91 S6        29.92F THUNDER
$$

ILZ005-006-012>014-019>023-211100-
NORTHEAST ILLINOIS

CITY           SKY/WX    TMP DP  RH WIND       PRES   REMARKS
CHICAGO-OHARE  CLOUDY    71  66  84 S3        29.95R
CHICAGO-MIDWAY TSTM      74  70  87 SW8       29.95R
AURORA         LGT RAIN  71  68  90 SE5       29.94S
WAUKEGAN       PTCLDY    68  66  93 CALM      29.93S
DUPAGE AIRPORT CLOUDY    72  69  90 S5        29.94F
WHEELING       CLOUDY    73  67  81 SW3       29.96R
NORTHERLY ISL    N/A     73  67  81 SW7         N/A
$$

LMZ740>746-211100-
SOUTHERN LAKE MICHIGAN

STATION/POSITION SKY/WX   TEMP    WIND        PRES    VSBY  WAVE
                          AIR SEA DIR/SP/G                  HT/PER
                          (F)     (DEG/KT/KT) (MB)    (MI)  (FT/S)
SOUTHERN BUOY              68 68   60/  6/  6 1013.5F         0
WAUKEGAN HARBOR            70      CALM  /  3   N/A
HARRISON CRIB              73     210/ 11/ 14   N/A
BURNHAM HARBOR             73     230/  9       N/A
CALUMET HARBOR             72     180/  7/ 11 1012.8S
MICHIGAN CITY              72     180/ 10/ 13   N/A
MICHIGAN CITY 6N           70 71  190/ 12/ 14   N/A           1/ 3
ST. JOSEPH                 72 71  190/  8/ 12   N/A           1/ 2
$$

ILZ025>027-034>036-040-047-049-050-058-095>099-211100-
WEST-CENTRAL ILLINOIS

CITY           SKY/WX    TMP DP  RH WIND       PRES   REMARKS
QUINCY         CLEAR     73  69  87 S7        29.93S
MACOMB*        CLEAR     72  71  96 SW7       29.94F
$$

ILZ028>032-037-038-041>044-048-051>054-059>061-211100-
CENTRAL ILLINOIS

CITY           SKY/WX    TMP DP  RH WIND       PRES   REMARKS
DECATUR        MOCLDY    74  71  91 SW13      29.95S
PEORIA         PTCLDY    73  69  87 S10       29.92F
SPRINGFIELD    CLEAR     74  71  91 SW7       29.94S
TAYLORVILLE    NOT AVBL
$$

ILZ033-039-045-046-055>057-062-063-211100-
EAST-CENTRAL ILLINOIS

CITY           SKY/WX    TMP DP  RH WIND       PRES   REMARKS
CHAMPAIGN      CLOUDY    71  69  93 S6        29.95F
MATTOON        CLOUDY    73  70  90 S8        29.96F
$$

ILZ079-100>102-211100-
SOUTHWEST ILLINOIS

CITY           SKY/WX    TMP DP  RH WIND       PRES   REMARKS
BELLEVILLE     PTCLDY    73  73 100 NE2       29.97S FOG
CAHOKIA*       PTCLDY    72  71  97 CALM      29.97S
$$

ILZ064>066-069>071-074>076-080>082-084>086-088>090-092>094-211100-
SOUTH-CENTRAL ILLINOIS

CITY           SKY/WX    TMP DP  RH WIND       PRES   REMARKS
CARBONDALE     MOCLDY    77  72  84 S3        30.00S
MT. VERNON     MOCLDY    72  66  83 CALM      30.00F
SALEM*         MOCLDY    76  74  94 S3        30.00R
$$

ILZ067-068-072-073-078-083-087-091-211100-
SOUTHEAST ILLINOIS

CITY           SKY/WX    TMP DP  RH WIND       PRES   REMARKS
LAWRENCEVILLE  PTCLDY    71  68  90 SW5       29.98F
HARRISBURG*    MOCLDY    74  74 100 SE3       30.02F
ROBINSON*      PTCLDY    73  70  88 SW6       29.97F
$$

ABBREVIATIONS USED IN REMARKS
   TC - TEMPERATURE IN CELSIUS
  WCI - WIND CHILL INDEX
   HX - HEAT INDEX
  VSB - VISIBILITY
$$




USA.gov is the U.S. government's official web portal to all federal, state and local government web resources and services.